FENGYUN 1C DEB, 31326

Orbit data source: Space-Track

FENGYUN 1C DEB, 31326 is space debris in SSO originally from a launch on Mon, 10 May 1999 UTC launched from the Taiyaun Space Center, China (TSC). Fengyun 1C debris stems from the Chinese weather satellite Fengyun-1C, which was intentionally destroyed by a Chinese anti-satellite missile in 2007. This event dramatically increased the amount of space debris, with thousands of trackable fragments posing hazards to satellites and human spaceflight. The Fengyun 1C debris cloud has become a focal point in discussions about space sustainability and the need for international regulations to prevent the creation of new debris.

Loading next visibility...
Identifier
31326, 1999-025BQE
Orbit
SSO
Country
Flag of CNCN / PRC
Related business
Manufacturer
Unknown
Mission
Spacecraft
Bus & Motor
Unknown
Mass
Unknown
Launch date (UTC)
1999-05-10 (27 years ago)
Launch vehicle
Unknown
Launch site
Taiyaun Space Center, China (TSC)
Object type
Payload
Rocket body
Debris
Shape & HBR
Unknown shape, 0.1 m
Radar Cross Section
Small (<0.1 m²)

Expand to show TLE details & history
Last TLE update: 3 months ago

TLE from 3 months ago
0 FENGYUN 1C DEB
1 31326U 99025BQE 25359.64665250  .00096432  00000-0  72844-2 0  9999
2 31326  98.9697 243.4968 0011842 332.7267  27.3330 15.01858970739390
Epoch: 2025-12-25T15:31Z
TLE epoch observation values (Epoch: 2025-12-25T15:31:10.775Z)
Latitude
-0.00002°
Longitude
-83.69679°
Altitude
556.881 km
Speed
7.587 km/s
True Right ascension
16h 13m 59s
True Declination
0° 00' 00"
Sunlit
Object was in daylight at epoch
Visualization orbit readout
Latitude
Unknown
Longitude
Unknown
Altitude
Unknown
Speed
Unknown
Apparent Right ascension
Unknown
Apparent Declination
Unknown
Sunlit
N/A
Visualization observer readout
Local Sidereal Time
13:09:18
Azimuth
Unknown
Elevation
Unknown
Doppler factor
Unknown
Orbital elements
Apogee altitude
566.442 km
Perigee altitude
550.013 km
Semi-major axis
6,936.364 km
Eccentricity
0.00118
Inclination
98.9697°
RAAN
243.4968°
Arg. of periapsis
332.7267°
True anomaly
27.39539°
Mean anomaly
27.333°
Eccentric anomaly
27.36419°
Mean motion
3.75704 °/min
Orbital period
95.82 mins
BSTAR
0.0072844
Loading maneuver chart data...
Computing Atmospheric mass density...
Loading historical data...
Loading historical data...
Loading historical data...
Loading historical data...
Loading historical data...
Loading historical data...
Loading historical data...

Documentation

Showing up to 5 results
|